Regional Weather Roundup
Issued by NWS

Home | Current Version | Previous Version | Graphics & Text | Print | Product List | Glossary On
Versions: 1 2 3 4 5 6 7 8 9 10 11 12 13 14 15 16 17 18 19 20 21 22 23 24 25 26 27 28 29 30 31 32 33 34 35 36 37 38 39 40 41 42 43 44 45 46 47 48 49 50
000
ASUS43 KDTX 290010
RWRMI
MICHIGAN HOURLY REGIONAL WEATHER ROUNDUP
NATIONAL WEATHER SERVICE DETROIT/PONTIAC MI
800 PM EDT FRI APR 28 2017

NOTE: "FAIR" INDICATES FEW OR NO CLOUDS BELOW 12,000 FEET WITH NO
SIGNIFICANT WEATHER AND/OR OBSTRUCTION TO VISIBILITY.

MIZ047>049-052>055-059>063-066>070-074>076-081>083-290100-
SOUTHEAST LOWER MICHIGAN

CITY           SKY/WX    TMP DP  RH WIND       PRES   REMARKS
ADRIAN         CLOUDY    54  51  90 S9        29.95R
6HR MIN TEMP:  54; 6HR MAX TEMP:  62; 6HR PCP:  0.01;

ALMA           CLOUDY    59  44  57 CALM      29.92R
6HR MIN TEMP:  58; 6HR MAX TEMP:  62;

ANN ARBOR      CLOUDY    57  48  72 SE8       29.92F
BAD AXE        CLOUDY    58  44  59 NW3       29.91S
6HR MIN TEMP:  58; 6HR MAX TEMP:  64;

CARO           CLOUDY    61  44  52 S8        29.90S
DETROIT CITY   CLOUDY    59  47  64 S14G21    29.95R
6HR MIN TEMP:  59; 6HR MAX TEMP:  62;

DETROIT        CLOUDY    59  49  69 SE7       29.95S
6HR MIN TEMP:  59; 6HR MAX TEMP:  64;

FLINT          CLOUDY    60  41  49 S8        29.91S
6HR MIN TEMP:  60; 6HR MAX TEMP:  65;

GROSSE ILE     CLOUDY    55  51  86 S9        29.95R
6HR MIN TEMP:  55; 6HR MAX TEMP:  60;

HILLSDALE      CLOUDY    54  46  76 SE12G17   29.92R
HOWELL         CLOUDY    59  40  50 SE7       29.90F
6HR MIN TEMP:  59; 6HR MAX TEMP:  64;


CITY           SKY/WX    TMP DP  RH WIND       PRES   REMARKS
JACKSON        CLOUDY    58  46  64 S7        29.90F
6HR MIN TEMP:  58; 6HR MAX TEMP:  63;

LAMBERTVILLE   CLOUDY    55  50  86 S6        29.95S
6HR MIN TEMP:  55; 6HR MAX TEMP:  61;

LANSING        CLOUDY    60  40  47 S6        29.90S
6HR MIN TEMP:  60; 6HR MAX TEMP:  64;

LAPEER         CLOUDY    60  40  46 S8        29.92R
6HR MIN TEMP:  60; 6HR MAX TEMP:  66;

MASON          CLOUDY    59  45  58 S8        29.91R
MONROE         CLOUDY    56  51  84 S13       29.94F
6HR MIN TEMP:  56; 6HR MAX TEMP:  63;

MT. CLEMENS    CLOUDY    58  47  67 S9        29.92F
6HR MIN TEMP:  58; 6HR MAX TEMP:  62;

PONTIAC        CLOUDY    60  41  49 S6        29.91S
6HR MIN TEMP:  60; 6HR MAX TEMP:  64;

PORT HOPE        N/A     60  42  51 VRB6      29.89R
6HR MIN TEMP:  59; 6HR MAX TEMP:  65;

PORT HURON     CLOUDY    57  41  54 S8        29.94S
TRI CITIES     CLOUDY    60  46  59 W5        29.91R
6HR MIN TEMP:  59; 6HR MAX TEMP:  62;

MIDLAND        CLOUDY    61  42  48 W5        29.90R
6HR MIN TEMP:  60; 6HR MAX TEMP:  63;

TROY           CLOUDY    62  41  46 S8        29.95R
SAGINAW HB     MOCLDY    63  41  45 S9        29.90R
$$
MIZ043>046-050>051-056>058-064>065-071>073-077>080-290100-
SOUTHWEST LOWER MICHIGAN

CITY           SKY/WX    TMP DP  RH WIND       PRES   REMARKS
BATTLE CREEK   CLOUDY    60  45  57 S7        29.91R
6HR MIN TEMP:  59; 6HR MAX TEMP:  63;

BENTON HARBOR  CLOUDY    54  45  71 CALM      29.88F
6HR MIN TEMP:  53; 6HR MAX TEMP:  61;

BIG RAPIDS     CLOUDY    53  39  59 CALM      29.92S
6HR MIN TEMP:  53; 6HR MAX TEMP:  58;

COLDWATER      CLOUDY    57  48  73 S12G18    29.91R
6HR MIN TEMP:  57; 6HR MAX TEMP:  60;

FREMONT        CLOUDY    53  42  67 NW3       29.91F
HOLLAND        CLOUDY    56  45  66 N3        29.91R
6HR MIN TEMP:  53; 6HR MAX TEMP:  59; 6HR PCP: TRACE;

GRAND RAPIDS   CLOUDY    59  43  55 S3        29.90R
6HR MIN TEMP:  57; 6HR MAX TEMP:  61;

IONIA          CLOUDY    59  41  51 CALM      29.89S
6HR MIN TEMP:  59; 6HR MAX TEMP:  62;

KALAMAZOO      CLOUDY    60  43  53 S8        29.91R
6HR MIN TEMP:  59; 6HR MAX TEMP:  62; 6HR PCP: TRACE;

LUDINGTON      CLOUDY    46  37  71 CALM      29.94S
6HR MIN TEMP:  42; 6HR MAX TEMP:  46;

MARSHALL       CLOUDY    59  46  62 S7        29.90R
6HR MIN TEMP:  59; 6HR MAX TEMP:  63;

MOUNT PLEASANT CLOUDY    58  41  53 W6        29.92R
6HR MIN TEMP:  58; 6HR MAX TEMP:  61;

MUSKEGON       CLOUDY    55  43  63 N3        29.92S
6HR MIN TEMP:  48; 6HR MAX TEMP:  56;

SOUTH HAVEN    CLOUDY    54  46  76 CALM      29.89S
$$
MIZ016>042-290100-
NORTHERN LOWER MICHIGAN

CITY           SKY/WX    TMP DP  RH WIND       PRES   REMARKS
ALPENA         CLEAR     43  35  73 NE9       29.93R
6HR MIN TEMP:  43; 6HR MAX TEMP:  62;

BEAVER ISLAND  PTCLDY    39  32  75 SW8       29.96R WCI  34
6HR MIN TEMP:  37; 6HR MAX TEMP:  43;

BELLAIRE       CLOUDY    44  29  57 NW3       29.96S
6HR MIN TEMP:  44; 6HR MAX TEMP:  47;

CADILLAC       CLOUDY    50  31  49 NW8       29.93R
CHARLEVOIX     PTCLDY    41  31  67 W7        29.99R
FRANKFORT      CLOUDY    44  32  63 CALM      29.95S
GAYLORD        PTCLDY    45  29  53 W7        29.92S
6HR MIN TEMP:  45; 6HR MAX TEMP:  51;

GRAYLING       CLOUDY    46  33  59 NW8       29.94R
6HR MIN TEMP:  46; 6HR MAX TEMP:  60;

HARBOR SPRINGS PTCLDY    40  30  68 W5        29.96S
HOUGHTON LAKE  CLOUDY    56  39  53 W9        29.91R
6HR MIN TEMP:  55; 6HR MAX TEMP:  61;

MANISTEE       LGT RAIN  45  34  65 NE3       29.95R
OSCODA         CLOUDY    42  34  72 N14       29.92R
6HR MIN TEMP:  42; 6HR MAX TEMP:  66;

PELLSTON       PTCLDY    42  27  55 W12       29.96R
6HR MIN TEMP:  39; 6HR MAX TEMP:  44;

ROGERS CITY    CLEAR     44  31  60 W9        29.95R
TRAVERSE CITY  CLOUDY    47  31  53 NW7       29.94R
6HR MIN TEMP:  47; 6HR MAX TEMP:  52;

$$
MIZ007>008-015-290100-
EASTERN UPPER MICHIGAN

CITY           SKY/WX    TMP DP  RH WIND       PRES   REMARKS
KINROSS        CLOUDY    36  29  75 N12       29.96R WCI  28
6HR MIN TEMP:  36; 6HR MAX TEMP:  41;

MACKINAC ISLAN PTCLDY    38  31  73 W13       29.95S WCI  31
6HR MIN TEMP:  37; 6HR MAX TEMP:  40;

NEWBERRY       CLOUDY    37  28  72 NW5       29.95R WCI  33
6HR MIN TEMP:  37; 6HR MAX TEMP:  42;

S. S. MARIE    CLOUDY    37  28  70 NW12      29.95R WCI  29
6HR MIN TEMP:  37; 6HR MAX TEMP:  43;

MUNISING         N/A     39  29  67 N5        29.96R
6HR MIN TEMP:  38; 6HR MAX TEMP:  42;

$$
MIZ004>006-011>014-085-290100-
CENTRAL UPPER MICHIGAN

CITY           SKY/WX    TMP DP  RH WIND       PRES   REMARKS
MANISTIQUE     CLOUDY    39  36  90 CALM      29.96R
6HR MIN TEMP:  38; 6HR MAX TEMP:  44;

ESCANABA       CLOUDY    44  30  57 NW8       29.95S
6HR MIN TEMP:  40; 6HR MAX TEMP:  46;

MENOMINEE      MOCLDY    48  30  49 N7        29.94R
6HR MIN TEMP:  43; 6HR MAX TEMP:  51;

SAWYER-GWINN   CLOUDY    37  27  65 W9G16     29.95R WCI  31
$$
MIZ001>003-009>011-084-290100-
WESTERN UPPER MICHIGAN

CITY           SKY/WX    TMP DP  RH WIND       PRES   REMARKS
IRON MOUNTAIN  MOCLDY    43  25  49 NW8       29.94R
6HR MIN TEMP:  37; 6HR MAX TEMP:  43;

HOUGHTON       CLOUDY    35  26  69 NW15      29.95R WCI  25
6HR MIN TEMP:  33; 6HR MAX TEMP:  37; 6HR PCP: TRACE;

COPPER HARBOR    N/A     36  27  69 N15       29.95R WCI  27
6HR MIN TEMP:  33; 6HR MAX TEMP:  38; 6HR PCP:  0.01;

IRONWOOD       CLOUDY    37  29  72 N12       29.98R WCI  29
6HR MIN TEMP:  34; 6HR MAX TEMP:  42;

$$

ABBREVIATIONS USED IN REMARKS
   TC - TEMPERATURE IN CELSIUS
  WCI - WIND CHILL INDEX
   HX - HEAT INDEX
  VSB - VISIBILITY




USA.gov is the U.S. government's official web portal to all federal, state and local government web resources and services.